This is the latest recevied weather packets stored in our database for station/object KB3FKJ. If no packets are shown the sender has not sent any weather packets the latest 10 day(s).
| Time | Temp. | Humidity | Pressure | Rain* | Wind** | Luminosity | Snow |
|---|---|---|---|---|---|---|---|
| 1777726439 | 4.44° C | 84% | 1014.3 hPa | 0 mm | - | 199 W/m² | - |
| 1777726135 | 3.89° C | 84% | 1014.5 hPa | 0 mm | - | 148 W/m² | - |
| 1777725832 | 3.89° C | 82% | 1014.6 hPa | 0 mm | - | 81 W/m² | - |
| 1777725530 | 3.89° C | 84% | 1014.5 hPa | 0 mm | - | 72 W/m² | - |
| 1777725227 | 3.89° C | 85% | 1014.4 hPa | 0 mm | - | 67 W/m² | - |
| 1777724924 | 3.33° C | 86% | 1014.6 hPa | 0 mm | - | 58 W/m² | - |
| 1777724620 | 3.33° C | 86% | 1014.5 hPa | 0 mm | - | 52 W/m² | - |
| 1777724318 | 3.33° C | 87% | 1014.5 hPa | 0 mm | - | 42 W/m² | - |
| 1777724016 | 3.33° C | 88% | 1014.6 hPa | 0 mm | - | 40 W/m² | - |
| 1777723713 | 2.78° C | 89% | 1014.6 hPa | 0 mm | - | 39 W/m² | - |
| 1777723408 | 2.78° C | 89% | 1014.8 hPa | 0 mm | - | 37 W/m² | - |
| 1777723107 | 2.78° C | 90% | 1014.7 hPa | 0 mm | - | 31 W/m² | - |
| 1777722804 | 2.22° C | 91% | 1014.6 hPa | 0 mm | - | 25 W/m² | - |
| 1777722500 | 2.22° C | 93% | 1014.6 hPa | 0 mm | - | 28 W/m² | - |
| 1777722196 | 2.22° C | 93% | 1014.4 hPa | 0 mm | - | 28 W/m² | - |
| 1777721893 | 1.67° C | 94% | 1014.4 hPa | 0 mm | - | 25 W/m² | - |
| 1777721591 | 1.67° C | 94% | 1014.2 hPa | 0 mm | - | 22 W/m² | - |
| 1777721289 | 1.67° C | 95% | 1014.3 hPa | 0 mm | - | 21 W/m² | - |
| 1777720986 | 1.67° C | 96% | 1014.3 hPa | 0 mm | - | 22 W/m² | - |
| 1777720683 | 1.67° C | 96% | 1014.2 hPa | 0 mm | - | 22 W/m² | - |
| 1777720381 | 1.67° C | 96% | 1014.4 hPa | 0 mm | - | 20 W/m² | - |
| 1777720078 | 1.67° C | 96% | 1014.4 hPa | 0 mm | - | 19 W/m² | - |
| 1777719776 | 1.67° C | 96% | 1014.4 hPa | 0 mm | - | 17 W/m² | - |
| 1777719474 | 1.67° C | 96% | 1014.3 hPa | 0 mm | - | 14 W/m² | - |
| 1777719169 | 1.67° C | 96% | 1014.4 hPa | 0 mm | - | 15 W/m² | - |
* Rain latest hour (hover to see other rain measurements)
** Current wind speed in m/s (hover to see current wind gust speed)